Location: Babice
(50.3480°N, 22.9363°E)
Time: 12:49:26
(UTC+00:00)

Cosmos 1733 Rocket - Pass Details

Date: 14 July 2020
Orbit: 604 x 627 km, 82.5° (Epoch: 08 August)

Event Time Altitude Azimuth Distance (km) Brightness Sun altitude
Exits shadow 01:29:33 10° 209° (SSW) 1,943 5.0 -8.3°
Maximum altitude 01:33:43 49° 285° (WNW) 787 3.4 -7.8°
Drops below altitude 10° 01:37:56 10° 1° (N) 1,966 6.4 -7.4°
Sets 01:40:14 0° 7° (N) 2,876 7.5 -7.2°
